Terminal Aerodrome Forecast
Issued by NWS Corpus Christi, TX

Home | Current Version | Previous Version | Text Only | Print | Product List | Glossary On
Versions: 1 2 3 4 5 6 7 8 9 10 11 12 13 14 15
000
FTUS44 KCRP 312338
TAFVCT
TAF
KVCT 312338Z 0100/0124 VRB06KT P6SM VCSH FEW060 BKN250
     FM010300 VRB04KT P6SM FEW150 SCT250
      TEMPO 0110/0113 VRB03KT 5SM BR FEW150
     FM011600 07008KT P6SM FEW040 SCT150
     FM012100 11009KT P6SM FEW150=

USA.gov is the U.S. government's official web portal to all federal, state and local government web resources and services.